Weather History for KHPN - August, 2014

Change the Weather History Date:

Thursday, August 28, 2014

  Actual Average Record
Temperature  
Mean Temperature 71 °F -  
Max Temperature 80 °F 76 °F 95 °F (1993)
Min Temperature 62 °F 60 °F 46 °F (1986)
Cooling Degree Days 6    
Growing Degree Days 21 (Base 50)    
Moisture  
Dew Point 55 °F    
Average Humidity 59    
Maximum Humidity 87    
Minimum Humidity 36    
Precipitation  
Precipitation 0.00 in - - ()
Sea Level Pressure  
Sea Level Pressure 29.90 in    
Wind  
Wind Speed 10 mph (NNW)    
Max Wind Speed 18 mph    
Max Gust Speed 24 mph    
Visibility 10 miles    
Events      
Averages and records for this station are not official NWS values.
T = Trace of Precipitation, MM = Missing Value Source: NWS Daily Summary

Daily Weather History Graph

Daily Weather History Graph

Search for Another Location

Airport or City:

Trip Planner

Search our weather history database for the weather conditions in past years. The results will help you decide how hot, cold, wet, or windy it might be!

Date:

Astronomy

Aug. 28, 2014 Rise Set
Actual Time 6:17 AM EDT 7:33 PM EDT
Civil Twilight 5:48 AM EDT 8:02 PM EDT
Nautical Twilight 5:14 AM EDT 8:36 PM EDT
Astronomical Twilight 4:38 AM EDT 9:12 PM EDT
Moon 9:09 AM EDT (8/28) 8:54 PM EDT (8/28)
Length of Visible Light 14h 13m
Length of Day
13h 16m
Waxing Crescent, 8% of the Moon is Illuminated
Aug 28
Waxing Crescent
Sep 2
First Quarter
Sep 8
Full
Sep 15
Last Quarter
Sep 24
New

Hourly Weather History & Observations

Time (EDT) Temp. Dew Point Humidity Pressure Visibility Wind Dir Wind Speed Gust Speed Precip Events Conditions
12:56 AM 73.0 °F 68.0 °F 84% 29.87 in 10.0 mi NNW 6.9 mph - N/A   Mostly Cloudy
1:56 AM 72.0 °F 66.9 °F 84% 29.84 in 10.0 mi North 8.1 mph - N/A   Scattered Clouds
2:56 AM 72.0 °F 66.0 °F 81% 29.84 in 10.0 mi North 5.8 mph - N/A   Overcast
3:56 AM 69.1 °F 64.9 °F 87% 29.84 in 10.0 mi North 8.1 mph - N/A   Clear
4:56 AM 66.0 °F 57.9 °F 75% 29.86 in 10.0 mi North 8.1 mph - N/A   Clear
5:56 AM 64.0 °F 57.0 °F 78% 29.86 in 10.0 mi NNW 8.1 mph - N/A   Clear
6:56 AM 64.0 °F 57.0 °F 78% 29.88 in 10.0 mi North 12.7 mph - N/A   Clear
7:56 AM 66.9 °F 57.9 °F 73% 29.89 in 10.0 mi NNW 8.1 mph - N/A   Partly Cloudy
8:56 AM 69.1 °F 57.0 °F 65% 29.90 in 10.0 mi NNW 6.9 mph - N/A   Partly Cloudy
9:56 AM 72.0 °F 55.9 °F 57% 29.89 in 10.0 mi NNW 13.8 mph - N/A   Partly Cloudy
10:56 AM 73.9 °F 55.0 °F 52% 29.89 in 10.0 mi NNW 15.0 mph 20.7 mph N/A   Partly Cloudy
11:56 AM 75.9 °F 55.9 °F 50% 29.88 in 10.0 mi NW 18.4 mph 24.2 mph N/A   Scattered Clouds
12:56 PM 79.0 °F 53.1 °F 40% 29.86 in 10.0 mi NNW 17.3 mph 23.0 mph N/A   Mostly Cloudy
1:56 PM 75.9 °F 52.0 °F 43% 29.87 in 10.0 mi WNW 12.7 mph - N/A   Mostly Cloudy
2:56 PM 75.9 °F 50.0 °F 40% 29.86 in 10.0 mi NW 13.8 mph - N/A   Scattered Clouds
3:56 PM 78.1 °F 50.0 °F 37% 29.87 in 10.0 mi NW 9.2 mph 21.9 mph N/A   Mostly Cloudy
4:56 PM 78.1 °F 48.9 °F 36% 29.89 in 10.0 mi NW 12.7 mph - N/A   Scattered Clouds
5:56 PM 73.9 °F 48.9 °F 41% 29.91 in 10.0 mi NW 11.5 mph - N/A   Scattered Clouds
6:56 PM 73.9 °F 48.9 °F 41% 29.93 in 10.0 mi NNW 10.4 mph - N/A   Scattered Clouds
7:56 PM 70.0 °F 48.9 °F 47% 29.96 in 10.0 mi NW 6.9 mph - N/A   Scattered Clouds
8:56 PM 66.9 °F 51.1 °F 57% 29.99 in 10.0 mi NNW 6.9 mph - N/A   Scattered Clouds
9:56 PM 66.9 °F 48.9 °F 52% 30.01 in 10.0 mi NW 12.7 mph - N/A   Scattered Clouds
10:56 PM 63.0 °F 50.0 °F 63% 30.03 in 10.0 mi NNW 9.2 mph - N/A   Clear
11:56 PM 62.1 °F 50.0 °F 65% 30.04 in 10.0 mi NNW 10.4 mph - N/A   Clear